Location: Congrier
(47.8099°N, 1.1170°W)
Time: 13:47:44
(UTC+00:00)

SL-16 R/B - Visible Passes

Search period start: 25 September 2023 00:00
Search period end: 05 October 2023 00:00
Orbit: 841 x 846 km, 71.0° (Epoch: 24 September)

Date Brightness Start Highest point End Pass type
(mag) Time Alt. Az. Time Alt. Az. Time Alt. Az.
25 Sep 4.3 01:50:35 10° N 01:55:09 24° NE 01:59:43 10° E visible
25 Sep 2.0 03:34:11 10° NNW 03:39:52 74° WSW 03:45:30 10° SSE visible
25 Sep 3.8 05:21:02 10° WNW 05:22:55 12° W 05:24:49 10° WSW visible
25 Sep 2.6 18:29:00 10° SW 18:34:39 69° WNW 18:40:21 10° NNE visible
25 Sep 4.9 20:16:14 10° WNW 20:19:51 17° NW 20:23:29 10° N visible
26 Sep 4.3 01:36:09 10° N 01:40:41 24° NE 01:45:11 10° E visible
26 Sep 2.0 03:19:44 10° NNW 03:25:26 77° WSW 03:31:05 10° SSE visible
26 Sep 3.8 05:06:21 10° WNW 05:08:31 12° W 05:10:41 10° WSW visible
26 Sep 4.9 20:01:40 10° W 20:05:22 17° NW 20:09:05 10° N visible
27 Sep 4.3 01:21:45 10° N 01:26:13 23° NE 01:27:14 22° ENE visible
27 Sep 3.0 03:05:17 10° NNW 03:17:46 - SSE 03:08:49 40° NW visible
27 Sep4.404:59:58SW04:59:58SW04:50:26WNWvisible
27 Sep 4.8 19:47:07 10° W 19:50:53 18° NW 19:54:40 10° N visible
28 Sep 4.4 01:07:20 10° N 01:10:43 21° NNE 01:10:43 21° NNE visible
28 Sep 4.0 02:50:50 10° NNW 02:52:27 20° NNW 02:52:27 20° NNW visible
28 Sep 4.8 19:32:33 10° W 19:36:24 18° NW 19:40:17 10° N visible
29 Sep 4.6 00:52:55 10° N 00:55:16 18° NNE 00:55:16 18° NNE visible
29 Sep 4.5 02:36:23 10° NNW 02:37:02 13° NNW 02:37:02 13° NNW visible
29 Sep 4.8 19:18:00 10° W 19:21:55 19° NW 19:25:52 10° N visible
30 Sep 4.7 00:38:31 10° N 00:40:11 16° N 00:40:11 16° N visible
30 Sep 4.7 02:21:56 10° NNW 02:21:59 10° NNW 02:21:59 10° NNW visible
30 Sep 4.7 19:03:26 10° W 19:07:27 19° NW 19:11:28 10° N visible
01 Oct 4.9 00:24:06 10° N 00:25:20 14° N 00:25:20 14° N visible
01 Oct 4.7 18:48:53 10° W 18:52:58 20° NW 18:57:03 10° N visible
02 Oct 4.9 00:09:41 10° N 00:10:37 13° N 00:10:37 13° N visible
02 Oct 4.6 18:34:20 10° W 18:38:29 20° NW 18:42:39 10° N visible
02 Oct 5.0 23:55:17 10° N 23:55:59 12° N 23:55:59 12° N visible
03 Oct 4.6 18:19:48 10° W 18:24:00 21° NW 18:28:14 10° N visible
03 Oct 5.0 23:40:52 10° N 23:41:25 12° N 23:41:25 12° N visible
04 Oct 4.5 18:05:15 10° W 18:09:31 21° NW 18:13:49 10° N visible
04 Oct 5.1 23:26:28 10° N 23:26:55 11° N 23:26:55 11° N visible
